KS5S Weather Reports


Display with metric or nautical units.
time (UTC)temp
F
wind
direction
speed
MPH
gust
MPH
rain 1hr
in
rain 24hr
in
rain mn
in
humidity
%
barometer
mb
20260901170817 96 244 4.0 11.0 0.00 0.00 0.00 46 1014.9
20260901170316 96 184 3.0 6.0 0.00 0.00 0.00 46 1014.9
20260901165815 96 207 4.0 5.0 0.00 0.00 0.00 46 1014.7
20260901165310 96 214 3.0 7.0 0.00 0.00 0.00 47 1014.9
20260901164807 95 244 2.0 10.0 0.00 0.00 0.00 48 1015.0
20260901164302 95 246 5.0 12.0 0.00 0.00 0.00 48 1015.1
20260901163757 95 133 3.0 8.0 0.00 0.00 0.00 48 1015.0
20260901163256 95 260 2.0 9.0 0.00 0.00 0.00 49 1015.4
20260901162751 94 230 4.0 8.0 0.00 0.00 0.00 49 1015.1
20260901162251 95 120 3.0 6.0 0.00 0.00 0.00 48 1015.2
20260901161749 95 187 2.0 9.0 0.00 0.00 0.00 48 1015.2
20260901161244 94 182 6.0 9.0 0.00 0.00 0.00 49 1015.3
20260901160740 94 229 2.0 7.0 0.00 0.00 0.00 50 1015.1
20260901160236 94 251 2.0 7.0 0.00 0.00 0.00 51 1015.0
20260901155735 93 198 2.0 9.0 0.00 0.00 0.00 52 1015.1
20260901155230 94 197 8.0 11.0 0.00 0.00 0.00 50 1015.4
20260901154725 93 230 5.0 7.0 0.00 0.00 0.00 51 1015.1
20260901154221 92 283 4.0 8.0 0.00 0.00 0.00 53 1015.0
20260901153716 92 272 1.0 8.0 0.00 0.00 0.00 54 1015.1
20260901153215 93 198 5.0 9.0 0.00 0.00 0.00 53 1015.1
20260901152709 93 198 5.0 9.0 0.00 0.00 0.00 53 1015.1
20260901152208 91 200 3.0 8.0 0.00 0.00 0.00 55 1015.1
20260901151704 92 241 3.0 7.0 0.00 0.00 0.00 55 1015.0
20260901151158 91 248 3.0 8.0 0.00 0.00 0.00 55 1014.8
20260901150658 91 258 4.0 8.0 0.00 0.00 0.00 57 1015.1
20260901150156 91 255 5.0 7.0 0.00 0.00 0.00 56 1015.3
20260901145653 91 240 2.0 9.0 0.00 0.00 0.00 57 1015.2
20260901145148 91 221 4.0 6.0 0.00 0.00 0.00 57 1015.1
20260901144644 90 189 2.0 5.0 0.00 0.00 0.00 60 1015.1
20260901144138 89 233 2.0 7.0 0.00 0.00 0.00 62 1015.3
20260901143633 89 222 3.0 6.0 0.00 0.00 0.00 61 1015.4
20260901143130 88 233 5.0 7.0 0.00 0.00 0.00 62 1015.3
20260901142626 89 191 4.0 6.0 0.00 0.00 0.00 63 1015.3
20260901142125 88 180 4.0 6.0 0.00 0.00 0.00 63 1015.3
20260901141619 88 186 5.0 8.0 0.00 0.00 0.00 64 1015.4
20260901141114 87 226 2.0 5.0 0.00 0.00 0.00 65 1015.4
20260901140613 87 217 2.0 5.0 0.00 0.00 0.00 67 1015.3
20260901140113 87 160 4.0 6.0 0.00 0.00 0.00 66 1015.4
20260901135612 87 269 0.0 4.0 0.00 0.00 0.00 67 1015.3
20260901135108 86 237 1.0 8.0 0.00 0.00 0.00 69 1015.4
20260901134604 86 153 2.0 5.0 0.00 0.00 0.00 69 1015.3
20260901134058 85 222 2.0 5.0 0.00 0.00 0.00 71 1015.4
20260901133557 85 178 3.0 5.0 0.00 0.00 0.00 70 1015.4
20260901133056 85 188 2.0 5.0 0.00 0.00 0.00 71 1015.2
20260901132550 85 253 1.0 6.0 0.00 0.00 0.00 71 1015.4
20260901132044 84 199 0.0 4.0 0.00 0.00 0.00 72 1015.2
20260901131538 83 151 4.0 5.0 0.00 0.00 0.00 73 1015.3
20260901131034 83 170 2.0 5.0 0.00 0.00 0.00 73 1015.2
20260901130533 82 176 5.0 5.0 0.00 0.00 0.00 74 1015.0
20260901130032 82 159 2.0 4.0 0.00 0.00 0.00 75 1014.8
20260901125531 82 210 1.0 3.0 0.00 0.00 0.00 75 1014.9
20260901125026 81 165 0.0 3.0 0.00 0.00 0.00 75 1014.7
20260901124522 80 159 1.0 3.0 0.00 0.00 0.00 77 1014.8
20260901124021 80 186 0.0 2.0 0.00 0.00 0.00 77 1014.8
20260901123516 80 241 0.0 3.0 0.00 0.00 0.00 78 1014.9
20260901123015 79 189 3.0 3.0 0.00 0.00 0.00 79 1014.7
20260901122514 78 135 0.0 2.0 0.00 0.00 0.00 79 1014.7
20260901122013 78 284 0.0 2.0 0.00 0.00 0.00 79 1014.4
20260901121509 78 322 0.0 1.0 0.00 0.00 0.00 80 1014.3
20260901121004 78 322 0.0 1.0 0.00 0.00 0.00 80 1014.4
20260901120503 78 217 0.0 1.0 0.00 0.00 0.00 79 1014.4
20260901115959 78 216 0.0 2.0 0.00 0.00 0.00 79 1014.4
20260901115454 78 230 2.0 3.0 0.00 0.00 0.00 79 1014.2
20260901114951 78 218 0.0 2.0 0.00 0.00 0.00 78 1014.3
20260901114447 78 214 0.0 3.0 0.00 0.00 0.00 78 1014.2
20260901113944 78 204 2.0 3.0 0.00 0.00 0.00 78 1014.1
20260901113444 78 206 1.0 3.0 0.00 0.00 0.00 78 1014.2
20260901112940 78 242 0.0 2.0 0.00 0.00 0.00 78 1014.2
20260901112435 78 212 0.0 3.0 0.00 0.00 0.00 78 1014.3
20260901111929 79 173 0.0 3.0 0.00 0.00 0.00 77 1014.1
20260901111428 79 219 1.0 2.0 0.00 0.00 0.00 77 1014.2
20260901110926 79 204 2.0 3.0 0.00 0.00 0.00 76 1014.1
20260901110423 79 186 2.0 4.0 0.00 0.00 0.00 76 1013.8
20260901105918 79 231 0.0 2.0 0.00 0.00 0.00 76 1014.1
20260901105414 79 203 0.0 3.0 0.00 0.00 0.00 75 1013.8
20260901104909 79 301 1.0 2.0 0.00 0.00 0.00 76 1013.9
20260901104404 79 241 1.0 2.0 0.00 0.00 0.00 75 1013.9
20260901103900 80 225 0.0 2.0 0.00 0.00 0.00 75 1014.0
20260901103354 80 225 1.0 2.0 0.00 0.00 0.00 75 1013.8
20260901102849 80 218 0.0 2.0 0.00 0.00 0.00 74 1014.0
20260901102348 80 234 1.0 2.0 0.00 0.00 0.00 74 1014.0
20260901101844 80 212 2.0 3.0 0.00 0.00 0.00 74 1013.9
20260901101339 80 244 2.0 3.0 0.00 0.00 0.00 74 1014.0
20260901100839 80 233 1.0 3.0 0.00 0.00 0.00 73 1014.0
20260901100339 80 214 1.0 2.0 0.00 0.00 0.00 73 1013.9
20260901095833 80 264 2.0 2.0 0.00 0.00 0.00 73 1013.9
20260901095330 81 219 0.0 2.0 0.00 0.00 0.00 73 1013.9
20260901094824 81 257 1.0 2.0 0.00 0.00 0.00 72 1014.1
20260901094319 81 218 0.0 2.0 0.00 0.00 0.00 72 1014.2
20260901093815 81 228 0.0 2.0 0.00 0.00 0.00 71 1014.0
20260901093313 82 196 1.0 3.0 0.00 0.00 0.00 71 1014.2
20260901092810 82 234 0.0 3.0 0.00 0.00 0.00 71 1014.2
20260901092306 82 255 2.0 3.0 0.00 0.00 0.00 70 1013.9
20260901091801 82 229 1.0 3.0 0.00 0.00 0.00 70 1014.0
20260901091256 82 263 2.0 5.0 0.00 0.00 0.00 69 1014.0
20260901090755 82 208 2.0 5.0 0.00 0.00 0.00 69 1014.1
20260901090250 82 227 2.0 4.0 0.00 0.00 0.00 69 1014.1
20260901085746 83 228 2.0 4.0 0.00 0.00 0.00 68 1014.0
20260901085242 83 235 2.0 4.0 0.00 0.00 0.00 68 1013.8
20260901084738 83 202 3.0 6.0 0.00 0.00 0.00 68 1014.0
20260901084234 83 221 2.0 6.0 0.00 0.00 0.00 67 1014.0
20260901083734 83 161 3.0 5.0 0.00 0.00 0.00 67 1014.2
20260901083234 83 189 4.0 9.0 0.00 0.00 0.00 66 1014.1
20260901082732 84 194 1.0 5.0 0.00 0.00 0.00 66 1013.8
20260901082228 84 184 2.0 6.0 0.00 0.00 0.00 66 1013.9
20260901081723 84 161 2.0 9.0 0.00 0.00 0.00 65 1014.1
20260901081223 84 174 2.0 7.0 0.00 0.00 0.00 65 1014.0
20260901080718 84 182 6.0 7.0 0.00 0.00 0.00 64 1014.0
20260901080217 84 170 1.0 8.0 0.00 0.00 0.00 64 1014.2
20260901075711 84 191 3.0 7.0 0.00 0.00 0.00 63 1014.0
20260901075206 84 207 4.0 6.0 0.00 0.00 0.00 63 1013.8
20260901074706 84 158 8.0 8.0 0.00 0.00 0.00 62 1013.8
20260901074200 84 174 3.0 7.0 0.00 0.00 0.00 62 1013.9
20260901073657 85 208 6.0 7.0 0.00 0.00 0.00 62 1013.8
20260901073152 85 185 6.0 8.0 0.00 0.00 0.00 62 1013.9
20260901072647 85 199 2.0 11.0 0.00 0.00 0.00 61 1013.8
20260901072142 85 179 3.0 7.0 0.00 0.00 0.00 61 1013.7
20260901071637 85 172 5.0 8.0 0.00 0.00 0.00 61 1014.0
20260901071137 85 167 3.0 7.0 0.00 0.00 0.00 60 1013.9
20260901070631 86 136 2.0 8.0 0.00 0.00 0.00 59 1013.7
20260901070127 86 145 5.0 9.0 0.00 0.00 0.00 59 1013.7
20260901065620 86 182 3.0 8.0 0.00 0.00 0.00 58 1013.6
20260901065115 85 170 3.0 7.0 0.00 0.00 0.00 58 1013.7
20260901064612 84 175 2.0 6.0 0.00 0.00 0.00 56 1013.8
20260901064108 84 129 3.0 6.0 0.00 0.00 0.00 55 1013.8
20260901063605 84 151 3.0 4.0 0.00 0.00 0.00 55 1013.2
20260901063101 84 136 2.0 5.0 0.00 0.00 0.00 55 1013.7
20260901062556 84 149 1.0 5.0 0.00 0.00 0.00 54 1013.4
20260901062052 85 84 0.0 3.0 0.00 0.00 0.00 53 1013.2
20260901061548 86 139 3.0 6.0 0.00 0.00 0.00 51 1013.2
20260901061042 86 159 2.0 8.0 0.00 0.00 0.00 51 1013.4
20260901060537 86 143 3.0 7.0 0.00 0.00 0.00 50 1013.2
20260901060032 86 207 1.0 6.0 0.00 0.00 0.00 49 1013.2
20260901055528 87 73 0.0 5.0 0.00 0.00 0.00 49 1013.3
20260901055025 88 152 2.0 7.0 0.00 0.00 0.00 48 1013.1
20260901054521 88 149 7.0 11.0 0.00 0.00 0.00 48 1013.0
20260901054017 87 185 2.0 5.0 0.00 0.00 0.00 48 1012.8
20260901053513 88 164 3.0 5.0 0.00 0.00 0.00 46 1012.8
20260901053009 88 194 2.0 5.0 0.00 0.00 0.00 46 1012.6
20260901052504 88 174 5.0 6.0 0.00 0.00 0.00 45 1012.8
20260901052004 88 163 1.0 5.0 0.00 0.00 0.00 45 1012.7
20260901051459 87 152 3.0 4.0 0.00 0.00 0.00 45 1012.6
20260901050957 88 184 2.0 5.0 0.00 0.00 0.00 44 1012.8
20260901050452 87 168 1.0 5.0 0.00 0.00 0.00 45 1012.6
20260901045952 87 176 0.0 4.0 0.00 0.00 0.00 45 1012.6
20260901045448 87 140 3.0 4.0 0.00 0.00 0.00 45 1012.6
20260901044942 87 156 1.0 4.0 0.00 0.00 0.00 46 1012.6
20260901044438 87 154 3.0 4.0 0.00 0.00 0.00 47 1012.8
20260901043934 86 153 3.0 4.0 0.00 0.00 0.00 48 1012.7
20260901043430 86 167 1.0 3.0 0.00 0.00 0.00 49 1012.9
20260901042925 86 157 0.0 3.0 0.00 0.00 0.00 49 1012.7
20260901042424 86 157 1.0 3.0 0.00 0.00 0.00 49 1012.6
20260901041925 86 137 1.0 3.0 0.00 0.00 0.00 49 1012.8
20260901041420 86 153 1.0 2.0 0.00 0.00 0.00 49 1012.7
20260901040920 86 161 0.0 3.0 0.00 0.00 0.00 49 1012.8
20260901040414 87 120 1.0 2.0 0.00 0.00 0.00 48 1012.8
20260901035908 87 127 0.0 3.0 0.00 0.00 0.00 48 1012.7
20260901035406 87 25 0.0 3.0 0.00 0.00 0.00 48 1012.7
20260901034859 87 140 1.0 3.0 0.00 0.00 0.00 47 1012.7
20260901034354 88 141 1.0 2.0 0.00 0.00 0.00 47 1012.8
20260901033849 88 44 0.0 3.0 0.00 0.00 0.00 46 1013.0
20260901033348 88 142 0.0 3.0 0.00 0.00 0.00 46 1012.9
20260901032846 88 166 1.0 4.0 0.00 0.00 0.00 46 1013.0
20260901032341 88 143 2.0 4.0 0.00 0.00 0.00 46 1012.6
20260901031836 88 148 2.0 3.0 0.00 0.00 0.00 46 1012.8
20260901031332 88 160 1.0 4.0 0.00 0.00 0.00 46 1012.7
20260901030831 89 155 1.0 3.0 0.00 0.00 0.00 46 1012.7
20260901030327 89 137 1.0 4.0 0.00 0.00 0.00 46 1012.6
20260901025826 89 156 2.0 5.0 0.00 0.00 0.00 46 1012.5
20260901025320 89 159 2.0 6.0 0.00 0.00 0.00 46 1012.7
20260901024810 89 186 0.0 4.0 0.00 0.00 0.00 46 1012.5
20260901024309 89 153 1.0 3.0 0.00 0.00 0.00 46 1012.5
20260901023807 89 141 2.0 3.0 0.00 0.00 0.00 45 1012.4
20260901023303 89 153 2.0 2.0 0.00 0.00 0.00 45 1012.5
20260901022758 90 156 0.0 2.0 0.00 0.00 0.00 45 1012.3
20260901022254 90 169 0.0 6.0 0.00 0.00 0.00 44 1012.0
20260901021749 90 164 1.0 3.0 0.00 0.00 0.00 44 1012.5
20260901021244 90 180 0.0 3.0 0.00 0.00 0.00 44 1012.3
20260901020739 91 152 1.0 3.0 0.00 0.00 0.00 44 1012.2
20260901020234 91 166 0.0 3.0 0.00 0.00 0.00 44 1012.3
20260901015728 91 143 1.0 3.0 0.00 0.00 0.00 44 1012.1
20260901015224 91 151 2.0 3.0 0.00 0.00 0.00 43 1012.1
20260901014719 91 160 0.0 4.0 0.00 0.00 0.00 43 1012.1
20260901014215 91 135 1.0 3.0 0.00 0.00 0.00 43 1012.1
20260901013710 91 170 1.0 3.0 0.00 0.00 0.00 43 1012.1
20260901013206 92 186 0.0 3.0 0.00 0.00 0.00 42 1012.3
20260901012701 92 157 0.0 3.0 0.00 0.00 0.00 42 1012.2
20260901012155 92 180 0.0 2.0 0.00 0.00 0.00 42 1012.1
20260901011651 93 175 0.0 2.0 0.00 0.00 0.00 41 1012.1
20260901011150 93 181 0.0 2.0 0.00 0.00 0.00 41 1011.9
20260901010639 93 211 0.0 3.0 0.00 0.00 0.00 41 1012.1
20260901010133 94 195 0.0 3.0 0.00 0.00 0.00 40 1012.0
20260901005633 94 132 0.0 4.0 0.00 0.00 0.00 39 1011.9
20260901005128 94 127 0.0 3.0 0.00 0.00 0.00 39 1012.0
20260901004627 95 94 0.0 3.0 0.00 0.00 0.00 38 1011.9
20260901004122 95 155 4.0 5.0 0.00 0.00 0.00 38 1011.9
20260901003617 96 97 0.0 4.0 0.00 0.00 0.00 38 1011.9
20260901003116 96 203 0.0 2.0 0.00 0.00 0.00 38 1011.9
20260901002616 96 66 0.0 5.0 0.00 0.00 0.00 37 1011.9
20260901002110 97 74 4.0 6.0 0.00 0.00 0.00 36 1011.9
20260901001605 97 170 0.0 5.0 0.00 0.00 0.00 36 1011.7
20260901001101 98 115 2.0 4.0 0.00 0.00 0.00 35 1011.5
20260901000555 98 85 3.0 7.0 0.00 0.00 0.00 35 1011.5
20260901000052 98 125 5.0 11.0 0.00 0.00 0.00 35 1011.4
20260831235545 98 158 3.0 8.0 0.00 0.00 0.00 34 1011.5
20260831235041 98 147 5.0 13.0 0.00 0.00 0.00 34 1011.5
20260831234540 99 118 3.0 11.0 0.00 0.00 0.00 34 1011.9
20260831234037 99 172 5.0 11.0 0.00 0.00 0.00 34 1011.9
20260831233531 99 158 8.0 11.0 0.00 0.00 0.00 34 1011.8
20260831233027 99 182 3.0 6.0 0.00 0.00 0.00 33 1011.7
20260831232522 98 145 3.0 10.0 0.00 0.00 0.00 34 1011.5
20260831232018 100 180 3.0 11.0 0.00 0.00 0.00 33 1011.7
20260831231515 100 211 2.0 14.0 0.00 0.00 0.00 33 1011.8
20260831231010 100 160 8.0 11.0 0.00 0.00 0.00 32 1011.7
20260831230505 100 178 7.0 12.0 0.00 0.00 0.00 31 1011.5
20260831230005 100 204 2.0 9.0 0.00 0.00 0.00 32 1011.4
20260831225501 100 162 4.0 8.0 0.00 0.00 0.00 33 1011.8
20260831225000 100 230 3.0 9.0 0.00 0.00 0.00 33 1011.5
20260831224455 99 180 3.0 7.0 0.00 0.00 0.00 34 1011.4
20260831223949 98 172 5.0 8.0 0.00 0.00 0.00 34 1011.2
20260831223445 98 173 3.0 9.0 0.00 0.00 0.00 34 1011.5
20260831222942 98 156 3.0 10.0 0.00 0.00 0.00 34 1011.5
20260831222437 99 172 6.0 8.0 0.00 0.00 0.00 33 1011.3
20260831221932 100 150 7.0 11.0 0.00 0.00 0.00 32 1011.5
20260831221428 101 174 3.0 11.0 0.00 0.00 0.00 32 1011.7
20260831220923 101 153 4.0 9.0 0.00 0.00 0.00 31 1011.5
20260831220419 102 182 4.0 11.0 0.00 0.00 0.00 31 1011.5
20260831215914 101 152 5.0 8.0 0.00 0.00 0.00 31 1011.8
20260831215409 101 104 5.0 16.0 0.00 0.00 0.00 31 1011.4
20260831214905 102 152 1.0 16.0 0.00 0.00 0.00 31 1011.8
20260831214403 102 122 5.0 12.0 0.00 0.00 0.00 31 1011.8
20260831213858 102 168 4.0 5.0 0.00 0.00 0.00 30 1011.9
20260831213355 101 172 7.0 13.0 0.00 0.00 0.00 31 1012.0
20260831212849 102 207 7.0 9.0 0.00 0.00 0.00 30 1011.9
20260831212346 102 221 3.0 8.0 0.00 0.00 0.00 30 1012.0
20260831211845 100 163 4.0 9.0 0.00 0.00 0.00 32 1012.1
20260831211344 101 141 4.0 15.0 0.00 0.00 0.00 32 1012.1
20260831210845 101 205 4.0 13.0 0.00 0.00 0.00 32 1012.3
20260831210341 100 162 6.0 13.0 0.00 0.00 0.00 32 1012.4
20260831205836 101 165 14.0 19.0 0.00 0.00 0.00 32 1012.4
20260831205331 101 152 6.0 18.0 0.00 0.00 0.00 31 1012.5
20260831204826 101 205 6.0 11.0 0.00 0.00 0.00 31 1012.5
20260831204325 101 226 4.0 8.0 0.00 0.00 0.00 30 1012.6
20260831203824 100 175 8.0 15.0 0.00 0.00 0.00 31 1012.6
20260831203319 101 184 4.0 16.0 0.00 0.00 0.00 30 1012.6
20260831202817 99 141 3.0 9.0 0.00 0.00 0.00 33 1012.9
20260831202312 100 257 0.0 9.0 0.00 0.00 0.00 32 1012.7
20260831201807 99 129 7.0 11.0 0.00 0.00 0.00 33 1012.9
20260831201305 100 167 5.0 9.0 0.00 0.00 0.00 32 1013.0
20260831200801 99 104 3.0 25.0 0.00 0.00 0.00 35 1013.2
20260831200250 100 180 5.0 10.0 0.00 0.00 0.00 33 1013.1
20260831195746 101 157 7.0 16.0 0.00 0.00 0.00 33 1013.0
20260831195241 100 150 8.0 17.0 0.00 0.00 0.00 33 1013.0
20260831194736 99 167 10.0 13.0 0.00 0.00 0.00 35 1013.0
20260831194232 98 183 4.0 13.0 0.00 0.00 0.00 35 1013.2
20260831193725 99 184 5.0 11.0 0.00 0.00 0.00 36 1013.3
20260831193221 98 100 5.0 9.0 0.00 0.00 0.00 37 1013.3
20260831192716 99 172 4.0 10.0 0.00 0.00 0.00 38 1013.6
20260831192211 97 161 13.0 17.0 0.00 0.00 0.00 40 1013.5
20260831191707 98 133 5.0 15.0 0.00 0.00 0.00 39 1013.5
20260831191203 98 184 5.0 11.0 0.00 0.00 0.00 38 1013.5
20260831190658 98 181 5.0 13.0 0.00 0.00 0.00 39 1013.6
20260831190157 99 172 3.0 11.0 0.00 0.00 0.00 38 1013.6
20260831185652 99 178 4.0 17.0 0.00 0.00 0.00 38 1013.7
20260831185147 99 158 7.0 9.0 0.00 0.00 0.00 36 1013.7
20260831184641 99 143 5.0 15.0 0.00 0.00 0.00 36 1013.8
20260831184137 99 221 4.0 12.0 0.00 0.00 0.00 37 1013.8
20260831183631 100 228 6.0 14.0 0.00 0.00 0.00 36 1014.1
20260831183131 99 302 0.0 11.0 0.00 0.00 0.00 38 1014.1
20260831182630 98 165 6.0 15.0 0.00 0.00 0.00 38 1014.2
20260831182126 98 170 5.0 13.0 0.00 0.00 0.00 39 1014.2
20260831181625 97 157 7.0 15.0 0.00 0.00 0.00 39 1014.3
20260831181120 98 172 7.0 13.0 0.00 0.00 0.00 38 1014.3
20260831180615 98 180 5.0 9.0 0.00 0.00 0.00 39 1014.3
20260831180110 98 253 4.0 11.0 0.00 0.00 0.00 38 1014.4
20260831175605 98 156 5.0 10.0 0.00 0.00 0.00 39 1014.6
20260831175102 98 174 9.0 11.0 0.00 0.00 0.00 38 1014.9
20260831174556 97 149 3.0 7.0 0.00 0.00 0.00 39 1014.8
20260831174056 98 118 4.0 16.0 0.00 0.00 0.00 39 1014.9
20260831173554 96 202 5.0 14.0 0.00 0.00 0.00 41 1014.9
20260831173051 97 136 5.0 12.0 0.00 0.00 0.00 39 1015.1
20260831172546 97 166 5.0 17.0 0.00 0.00 0.00 41 1015.1
20260831172046 96 170 2.0 10.0 0.00 0.00 0.00 41 1015.2
20260831171541 96 165 6.0 13.0 0.00 0.00 0.00 42 1015.2
20260831171039 96 148 5.0 11.0 0.00 0.00 0.00 42 1015.2